time_stamp(utc),avg(mph),gust(mph),direction(deg),12m_air_temp(f),sonic_u(cm/s),sonic_v(cm/s),sonic_w(cm/s),pressure,2m_air_temp(f),pyranometer(W/m^2)
"2017-05-15 00:00:21+00",5.6,6.6,,57.4,31,-237,-4,1001.61,57,0
"2017-05-15 00:05:21+00",7.1,8.1,,57.3,-16,-292,-13,1001.57,56.9,0
"2017-05-15 00:10:21+00",6.8,8.8,,57.3,-89,-279,1,1001.65,56.9,0
"2017-05-15 00:15:21+00",7.3,8.3,,57.5,-105,-287,-2,1001.67,57,0
"2017-05-15 00:20:21+00",8.0,9.0,,57.6,-189,-299,-4,1001.76,57,0
"2017-05-15 00:25:21+00",8.8,9.8,,57.7,-241,-310,5,1001.86,57,0
"2017-05-15 00:30:21+00",8.2,9.2,,57.8,-216,-294,-1,1001.85,57.1,0
"2017-05-15 00:35:21+00",7.8,9.8,,58,-211,-271,2,1001.96,57.2,0
"2017-05-15 00:40:21+00",6.3,6.3,,57.9,-155,-227,-1,1001.97,57.2,0
"2017-05-15 00:45:21+00",7.1,10.1,,58.4,-250,-177,-1,1002.02,57.2,0
"2017-05-15 00:50:21+00",7.4,8.4,,59.2,-251,-193,6,1002.05,57.4,0
"2017-05-15 00:55:21+00",7.7,8.7,,59.7,-265,-200,6,1001.99,57.6,0
"2017-05-15 01:00:21+00",8.0,9.0,,60,-261,-223,1,1002.08,57.8,0
"2017-05-15 01:05:21+00",6.5,7.5,,59,-206,-193,4,1002.13,57.9,0
"2017-05-15 01:10:21+00",6.3,7.3,,58.5,-223,-153,3,1002.28,57.8,0
"2017-05-15 01:15:21+00",8.3,10.3,,60,-309,203,12,1002.22,57.7,0
"2017-05-15 01:20:21+00",14.0,17.0,,63,-465,420,25,1002.22,58.6,0
"2017-05-15 01:25:21+00",26.5,30.5,,65,-833,826,74,1002.13,61.4,0
"2017-05-15 01:30:21+00",25.0,28.0,,66.1,-791,797,90,1002.16,63.6,0
"2017-05-15 01:35:21+00",23.2,27.2,,65.3,-768,714,65,1002.25,63.7,0
"2017-05-15 01:40:21+00",26.6,32.6,,65.4,-831,846,78,1002.39,63.8,0
"2017-05-15 01:45:21+00",22.1,26.1,,64.7,-647,763,72,1002.47,63.4,0
"2017-05-15 01:50:21+00",20.8,22.8,,64.1,-557,755,62,1002.65,62.8,0
"2017-05-15 01:55:21+00",22.9,25.9,,63.6,-458,906,62,1002.83,62.3,0
"2017-05-15 02:00:21+00",19.5,24.5,,60.7,-41,858,18,1002.9,60.8,0
"2017-05-15 02:05:21+00",20.7,22.7,,61.5,-196,900,23,1003.1,60.6,0
"2017-05-15 02:10:21+00",16.9,18.9,,60,-37,748,30,1003.46,59.8,0
"2017-05-15 02:15:21+00",15.3,18.3,,59,40,662,12,1003.75,59,0
"2017-05-15 02:20:21+00",15.5,19.5,,58.4,14,683,22,1003.87,58.2,0
"2017-05-15 02:25:21+00",15.6,17.6,,58,55,683,7,1004.08,57.6,0
"2017-05-15 02:30:21+00",16.7,20.7,,57.9,71,718,18,1004.3,57.2,0
"2017-05-15 02:35:21+00",24.3,28.3,,58.2,147,1053,4,1004.16,57.3,0
"2017-05-15 02:40:21+00",19.8,21.8,,57.7,92,859,17,1004.44,57,0
"2017-05-15 02:45:21+00",28.4,32.4,,57.7,88,1236,-4,1004.62,56.9,0
"2017-05-15 02:50:21+00",27.1,32.1,,57.2,10,1207,32,1004.86,56.6,0
"2017-05-15 02:55:21+00",32.7,40.7,,56.7,-36,1436,47,1004.73,56.2,0
"2017-05-15 03:00:21+00",34.3,38.3,,56.4,-238,1494,34,1004.83,55.8,0
"2017-05-15 03:05:21+00",28.5,34.5,,56.1,-298,1239,21,1004.9,55.7,0
"2017-05-15 03:10:21+00",26.7,31.7,,55.8,-280,1135,50,1005,55.4,0
"2017-05-15 03:15:21+00",23.6,26.6,,55.6,-355,968,54,1004.99,55.2,0
"2017-05-15 03:20:21+00",20.9,24.9,,55.4,-352,860,59,1005.08,55,0
"2017-05-15 03:25:21+00",22.3,25.3,,55.3,-335,935,56,1005.05,54.9,0
"2017-05-15 03:30:21+00",20.0,23.0,,55.2,-328,823,63,1005.08,54.7,0
"2017-05-15 03:35:21+00",21.2,24.2,,55.1,-425,839,51,1005.05,54.5,0
"2017-05-15 03:40:21+00",17.3,20.3,,54.9,-382,666,64,1005.05,54.5,0
"2017-05-15 03:45:21+00",21.1,26.1,,54.9,-499,799,58,1005.08,54.4,0
"2017-05-15 03:50:21+00",20.4,22.4,,54.7,-544,751,84,1005.14,54.4,0
"2017-05-15 03:55:21+00",21.3,25.3,,54.6,-499,813,56,1005.13,54.2,0
"2017-05-15 04:00:21+00",19.6,23.6,,54.5,-506,696,46,1005.14,54.1,0
"2017-05-15 04:05:21+00",21.2,24.2,,54.6,-667,690,97,1005.22,54.3,0
"2017-05-15 04:10:21+00",21.2,24.2,,54.5,-693,654,61,1005.34,54.3,0
"2017-05-15 04:15:21+00",21.2,23.2,,54.3,-687,654,76,1005.33,54.2,0
"2017-05-15 04:20:21+00",21.0,24.0,,54.2,-742,584,77,1005.41,54,0
"2017-05-15 04:25:21+00",21.3,24.3,,54.2,-715,639,66,1005.47,54,0
"2017-05-15 04:30:21+00",19.2,23.2,,54.2,-629,602,67,1005.43,54,0
"2017-05-15 04:35:21+00",18.7,21.7,,54.4,-612,565,79,1005.4,54,0
"2017-05-15 04:40:21+00",16.3,17.3,,54.2,-453,563,64,1005.41,54,0
"2017-05-15 04:45:21+00",18.4,20.4,,54,-497,652,58,1005.37,53.8,0
"2017-05-15 04:50:21+00",17.4,20.4,,54,-508,597,50,1005.43,53.6,0
"2017-05-15 04:55:21+00",18.5,20.5,,54.1,-557,602,49,1005.37,53.7,0
"2017-05-15 05:00:21+00",18.7,19.7,,54.2,-592,587,46,1005.35,53.8,0
"2017-05-15 05:05:21+00",16.9,18.9,,54.2,-500,565,53,1005.38,53.8,0
"2017-05-15 05:10:21+00",16.5,19.5,,54.2,-504,549,65,1005.46,53.7,0
"2017-05-15 05:15:21+00",15.6,17.6,,54,-518,480,41,1005.25,53.6,0
"2017-05-15 05:20:21+00",17.8,20.8,,54.1,-545,577,54,1005.26,53.6,0
"2017-05-15 05:25:21+00",16.0,19.0,,54.1,-551,454,46,1005.38,53.6,0
"2017-05-15 05:30:21+00",15.2,17.2,,54,-508,458,59,1005.38,53.6,0
"2017-05-15 05:35:21+00",16.1,18.1,,53.9,-540,473,52,1005.31,53.5,0
"2017-05-15 05:40:21+00",16.3,18.3,,53.9,-553,483,45,1005.28,53.4,0
"2017-05-15 05:45:21+00",14.3,16.3,,53.8,-501,394,57,1005.26,53.3,0
"2017-05-15 05:50:21+00",14.0,16.0,,53.7,-484,394,45,1005.35,53.2,0
"2017-05-15 05:55:21+00",15.3,17.3,,53.7,-548,413,47,1005.38,53.1,0
"2017-05-15 06:00:21+00",13.3,15.3,,53.7,-492,340,56,1005.4,53.2,0
"2017-05-15 06:05:21+00",14.9,15.9,,53.7,-567,349,49,1005.32,53,0
"2017-05-15 06:10:21+00",13.2,14.2,,53.7,-546,254,44,1005.2,52.9,0
"2017-05-15 06:15:21+00",14.5,17.5,,53.7,-603,236,45,1005.18,53,0
"2017-05-15 06:20:21+00",16.9,20.9,,53.7,-703,299,58,1005.12,53.1,0
"2017-05-15 06:25:21+00",18.3,23.3,,54.1,-755,332,52,1005.06,53.4,0
"2017-05-15 06:30:21+00",21.2,23.2,,54.6,-827,471,48,1005.05,53.6,0
"2017-05-15 06:35:21+00",19.4,23.4,,54.5,-755,447,73,1005.07,53.7,0
"2017-05-15 06:40:21+00",19.0,21.0,,54.5,-744,414,61,1005.15,53.7,0
"2017-05-15 06:45:21+00",19.1,22.1,,54.5,-719,451,68,1005.08,53.6,0
"2017-05-15 06:50:21+00",21.0,24.0,,54.4,-806,492,62,1005.09,53.5,0
"2017-05-15 06:55:21+00",21.3,23.3,,54.5,-816,498,61,1004.98,53.6,0
"2017-05-15 07:00:21+00",20.3,24.3,,54.4,-804,486,64,1005.04,53.5,0
"2017-05-15 07:05:21+00",18.9,21.9,,54.4,-737,438,66,1005.14,53.5,0
"2017-05-15 07:10:21+00",20.2,23.2,,54.4,-767,482,52,1005.22,53.5,0
"2017-05-15 07:15:21+00",20.8,22.8,,54.4,-798,507,59,1005.17,53.5,0
"2017-05-15 07:20:21+00",21.4,23.4,,54.4,-787,525,69,1005.22,53.5,0
"2017-05-15 07:25:21+00",20.0,22.0,,54.5,-754,512,72,1005.3,53.5,0
"2017-05-15 07:30:21+00",17.6,21.6,,54.3,-655,461,74,1005.39,53.5,0
"2017-05-15 07:35:21+00",20.7,22.7,,54.2,-774,526,72,1005.43,53.4,0
"2017-05-15 07:40:21+00",19.5,23.5,,54,-733,489,72,1005.49,53.2,0
"2017-05-15 07:45:21+00",19.1,22.1,,54.1,-738,453,61,1005.53,53.2,0
"2017-05-15 07:50:21+00",18.6,21.6,,54,-725,423,69,1005.61,53.1,0
"2017-05-15 07:55:21+00",19.4,21.4,,53.9,-747,439,46,1005.65,53.1,0
"2017-05-15 08:00:21+00",18.8,21.8,,53.9,-731,446,65,1005.73,53,0
"2017-05-15 08:05:21+00",20.8,22.8,,53.9,-841,414,57,1005.76,53,0
"2017-05-15 08:10:21+00",19.0,24.0,,53.8,-784,371,36,1005.69,52.9,0
"2017-05-15 08:15:21+00",17.5,20.5,,53.7,-719,329,60,1005.7,52.9,0
"2017-05-15 08:20:21+00",19.9,22.9,,53.9,-824,373,57,1005.68,53,0
"2017-05-15 08:25:21+00",19.2,23.2,,53.8,-804,345,74,1005.6,52.9,0
"2017-05-15 08:30:21+00",19.7,21.7,,53.7,-866,201,68,1005.71,53.1,0
"2017-05-15 08:35:21+00",18.5,22.5,,53.5,-821,170,75,1005.63,53.1,0
"2017-05-15 08:40:21+00",22.1,26.1,,53.4,-961,257,84,1005.57,52.9,0
"2017-05-15 08:45:21+00",21.1,26.1,,53.4,-918,344,86,1005.57,52.9,0
"2017-05-15 08:50:21+00",19.7,22.7,,53.2,-836,284,80,1005.47,52.7,0
"2017-05-15 08:55:21+00",24.5,28.5,,53.2,-1049,357,71,1005.51,52.6,0
"2017-05-15 09:00:21+00",23.4,25.4,,53.1,-1017,343,80,1005.53,52.5,0
"2017-05-15 09:05:21+00",20.7,22.7,,52.9,-877,322,76,1005.63,52.4,0
"2017-05-15 09:10:21+00",22.0,25.0,,52.8,-905,399,70,1005.71,52.2,0
"2017-05-15 09:15:21+00",21.6,24.6,,52.8,-893,374,76,1005.78,52.2,0
"2017-05-15 09:20:21+00",21.3,24.3,,52.7,-870,411,57,1005.85,52,0
"2017-05-15 09:25:21+00",22.2,25.2,,52.8,-914,425,70,1005.84,52,0
"2017-05-15 09:30:21+00",21.2,26.2,,52.7,-850,459,58,1006.02,51.9,0
"2017-05-15 09:35:21+00",21.1,24.1,,52.6,-855,443,71,1006.03,51.8,0
"2017-05-15 09:40:21+00",18.4,21.4,,52.5,-725,435,76,1006.15,51.6,0
"2017-05-15 09:45:21+00",20.0,24.0,,52.4,-816,382,60,1006.1,51.5,0
"2017-05-15 09:50:21+00",21.1,23.1,,52.4,-881,384,76,1006.08,51.6,0
"2017-05-15 09:55:21+00",22.7,24.7,,52.5,-901,470,65,1006.24,51.6,0
"2017-05-15 10:00:21+00",20.9,22.9,,52.4,-875,346,90,1006.23,51.6,0
"2017-05-15 10:05:21+00",18.8,21.8,,52.4,-779,315,82,1006.4,51.8,0
"2017-05-15 10:10:21+00",19.3,22.3,,52.4,-828,276,98,1006.34,51.9,0
"2017-05-15 10:15:21+00",19.3,22.3,,52.4,-840,290,100,1006.24,52,0
"2017-05-15 10:20:21+00",22.2,27.2,,52.4,-947,355,80,1006.4,52.1,0.6
"2017-05-15 10:25:21+00",23.0,26.0,,52.5,-986,357,82,1006.48,52.1,5.1
"2017-05-15 10:30:21+00",22.0,25.0,,52.6,-910,401,61,1006.55,52.3,14.4
"2017-05-15 10:35:21+00",23.3,26.3,,52.6,-997,360,77,1006.57,52.4,23.4
"2017-05-15 10:40:21+00",26.2,28.2,,52.7,-1105,430,75,1006.6,52.6,32.3
"2017-05-15 10:45:21+00",23.8,27.8,,52.7,-994,381,88,1006.63,52.6,39.5
"2017-05-15 10:50:21+00",26.4,28.4,,52.7,-1127,424,80,1006.59,52.7,49.8
"2017-05-15 10:55:21+00",25.0,29.0,,52.8,-1075,356,72,1006.61,52.8,59.7
"2017-05-15 11:00:21+00",23.2,27.2,,52.9,-1002,342,106,1006.73,53,69
"2017-05-15 11:05:21+00",25.4,28.4,,53,-1079,416,74,1006.62,53.2,79
"2017-05-15 11:10:21+00",26.9,30.9,,53.1,-1159,393,84,1006.72,53.3,90.8
"2017-05-15 11:15:21+00",24.2,28.2,,53.2,-1022,434,88,1006.77,53.4,91.9
"2017-05-15 11:20:21+00",24.3,28.3,,53.3,-1023,396,91,1006.86,53.6,109.8
"2017-05-15 11:25:21+00",24.3,28.3,,53.4,-1014,425,99,1006.9,53.7,121.7
"2017-05-15 11:30:21+00",25.2,28.2,,53.5,-1029,496,73,1006.98,53.8,132.2
"2017-05-15 11:35:21+00",25.2,29.2,,53.6,-1067,437,90,1007.02,54,144.1
"2017-05-15 11:40:21+00",23.6,26.6,,53.8,-978,427,80,1007.11,54.2,152.7
"2017-05-15 11:45:21+00",21.8,25.8,,53.9,-891,437,80,1007.23,54.4,163.8
"2017-05-15 11:50:21+00",23.0,28.0,,54.2,-929,475,67,1007.35,54.7,174.8
"2017-05-15 11:55:21+00",22.5,25.5,,54.4,-898,455,61,1007.3,54.9,183.6
"2017-05-15 12:00:21+00",22.2,27.2,,54.7,-868,467,89,1007.44,55.2,196
"2017-05-15 12:05:21+00",26.9,28.9,,54.7,-1010,648,65,1007.39,55.3,205.4
"2017-05-15 12:10:21+00",27.4,30.4,,55,-1065,631,51,1007.35,55.6,213.4
"2017-05-15 12:15:21+00",23.8,26.8,,55.1,-945,531,57,1007.39,55.8,221.7
"2017-05-15 12:20:21+00",23.0,26.0,,55.4,-890,541,68,1007.42,56,229.9
"2017-05-15 12:25:21+00",23.7,26.7,,55.5,-913,575,71,1007.48,56.2,238
"2017-05-15 12:30:21+00",27.3,30.3,,55.6,-885,843,84,1007.52,56.3,239.4
"2017-05-15 12:35:21+00",25.5,29.5,,55.7,-923,686,68,1007.5,56.3,257.9
"2017-05-15 12:40:21+00",26.2,29.2,,55.9,-929,733,87,1007.64,56.6,266.1
"2017-05-15 12:45:21+00",26.0,30.0,,56,-883,752,68,1007.63,56.8,273.8
"2017-05-15 12:50:21+00",27.6,30.6,,56.3,-997,754,85,1007.63,56.9,270.6
"2017-05-15 12:55:21+00",24.0,28.0,,56.3,-833,692,68,1007.55,57,287.2
"2017-05-15 13:00:21+00",25.4,27.4,,56.6,-842,790,66,1007.54,57.3,290.7
"2017-05-15 13:05:21+00",26.9,30.9,,56.5,-875,826,69,1007.51,57.4,302.8
"2017-05-15 13:10:21+00",26.0,28.0,,56.9,-910,761,93,1007.57,57.7,310.7
"2017-05-15 13:15:21+00",27.9,29.9,,56.9,-950,816,73,1007.62,57.8,296.5
"2017-05-15 13:20:21+00",28.3,32.3,,57.3,-938,855,97,1007.51,58.1,328.9
"2017-05-15 13:25:21+00",25.3,31.3,,57.4,-894,709,90,1007.59,58.2,334.3
"2017-05-15 13:30:21+00",31.0,35.0,,57.3,-1060,898,94,1007.41,58.2,345.3
"2017-05-15 13:35:21+00",29.2,32.2,,57.5,-991,851,91,1007.57,58.3,354.6
"2017-05-15 13:40:21+00",25.3,29.3,,57.6,-907,699,90,1007.67,58.5,360.6
"2017-05-15 13:45:21+00",27.3,33.3,,57.9,-966,767,99,1007.7,58.9,372.3
"2017-05-15 13:50:21+00",28.4,31.4,,57.9,-964,839,72,1007.77,58.8,382
"2017-05-15 13:55:21+00",28.4,31.4,,58.1,-1022,781,80,1007.8,59,391.8
"2017-05-15 14:00:21+00",29.6,33.6,,58.1,-1036,830,88,1007.61,59.1,399.5
"2017-05-15 14:05:21+00",27.3,35.3,,58.3,-953,759,93,1007.62,59.1,409.6
"2017-05-15 14:10:21+00",32.0,36.0,,58.4,-989,1051,89,1007.78,59.1,419.6
"2017-05-15 14:15:21+00",25.9,28.9,,58.7,-819,826,81,1007.77,59.6,427.6
"2017-05-15 14:20:21+00",27.9,31.9,,58.9,-935,866,91,1007.75,59.9,434.5
"2017-05-15 14:25:21+00",22.1,24.1,,59.3,-721,685,95,1007.68,60.3,448.1
"2017-05-15 14:30:21+00",21.0,24.0,,59.6,-665,673,71,1007.73,60.6,453
"2017-05-15 14:35:21+00",22.5,29.5,,59.4,-759,675,88,1007.8,60.4,460.8
"2017-05-15 14:40:21+00",25.8,34.8,,59.8,-689,945,107,1007.77,60.6,457.5
"2017-05-15 14:45:21+00",29.0,33.0,,59.9,-870,974,90,1007.66,60.9,482
"2017-05-15 14:50:21+00",25.1,27.1,,60.3,-790,819,96,1007.66,61.1,500.6
"2017-05-15 14:55:21+00",26.0,30.0,,60.4,-619,986,80,1007.69,61.3,498
"2017-05-15 15:00:21+00",23.4,29.4,,60.8,-550,892,98,1007.73,61.7,505.6
"2017-05-15 15:05:21+00",21.8,26.8,,60.1,-796,579,64,1007.73,61.7,492.1
"2017-05-15 15:10:21+00",25.6,28.6,,60.4,-1018,568,76,1007.56,61.4,525.4
"2017-05-15 15:15:21+00",21.9,26.9,,60.3,-724,670,80,1007.71,61.3,527
"2017-05-15 15:20:21+00",28.4,33.4,,60.7,-839,955,106,1007.62,61.6,531.8
"2017-05-15 15:25:21+00",28.0,31.0,,61.1,-703,1040,85,1007.66,62.2,538.1
"2017-05-15 15:30:21+00",23.8,27.8,,60.4,-885,603,75,1007.67,61.6,456.8
"2017-05-15 15:35:21+00",21.7,23.7,,61,-730,681,68,1007.69,62.1,568.8
"2017-05-15 15:40:21+00",30.9,34.9,,60.8,-1039,900,91,1007.54,61.8,565.9
"2017-05-15 15:45:21+00",24.5,27.5,,61.1,-751,807,65,1007.58,62.1,571.4
"2017-05-15 15:50:21+00",25.4,28.4,,60.9,-970,590,83,1007.55,62.2,491.1
"2017-05-15 15:55:21+00",23.9,26.9,,61,-855,669,72,1007.55,62.1,577.6
"2017-05-15 16:00:21+00",20.1,25.1,,61.1,-675,606,85,1007.58,62.2,572.4
"2017-05-15 16:05:21+00",23.1,27.1,,61.4,-852,622,109,1007.53,62.4,578.2
"2017-05-15 16:10:21+00",21.5,24.5,,61.5,-632,728,80,1007.48,62.6,587.7
"2017-05-15 16:15:21+00",21.7,24.7,,61.9,-730,648,80,1007.39,63.1,578.8
"2017-05-15 16:20:21+00",24.2,26.2,,61.7,-941,591,78,1007.29,62.9,493.3
"2017-05-15 16:25:21+00",27.3,29.3,,61.9,-946,778,79,1007.29,62.9,585
"2017-05-15 16:30:21+00",23.7,26.7,,62.1,-776,724,59,1007.25,63.2,582.2
"2017-05-15 16:35:21+00",26.3,29.3,,62.5,-896,768,68,1007.24,63.5,588.1
"2017-05-15 16:40:21+00",25.1,29.1,,62.7,-574,970,53,1007.26,64.1,587.5
"2017-05-15 16:45:21+00",24.5,30.5,,62.6,-856,689,82,1007.33,63.9,587.8
"2017-05-15 16:50:21+00",30.9,33.9,,62.8,-754,1151,84,1007.33,63.9,476.5
"2017-05-15 16:55:21+00",18.5,20.5,,62.6,-688,467,47,1007.4,64.1,586.5
"2017-05-15 17:00:21+00",25.7,31.7,,62.8,-858,781,99,1007.32,63.9,588.6
"2017-05-15 17:05:21+00",30.0,33.0,,63.4,-945,977,89,1007.17,64.3,586.5
"2017-05-15 17:10:21+00",24.9,27.9,,63.1,-886,699,71,1007.18,64.2,590.7
"2017-05-15 17:15:21+00",26.2,30.2,,63.7,-633,988,74,1007.02,64.8,583.3
"2017-05-15 17:20:21+00",30.7,34.7,,63.4,-1099,826,89,1007.02,64.5,583.7
"2017-05-15 17:25:21+00",25.7,28.7,,63.2,-854,778,74,1006.97,64.2,584.5
"2017-05-15 17:30:21+00",32.0,36.0,,63.3,-966,1052,90,1006.94,64.2,581.1
"2017-05-15 17:35:21+00",30.3,36.3,,63.8,-853,1072,77,1006.92,64.9,579.4
"2017-05-15 17:40:21+00",25.0,28.0,,64,-835,755,80,1006.98,65,575.6
"2017-05-15 17:45:21+00",24.2,30.2,,64.2,-676,843,68,1006.93,65.3,569.5
"2017-05-15 17:50:21+00",27.0,32.0,,63.9,-1049,646,75,1007.03,65.1,579.6
"2017-05-15 17:55:21+00",26.0,30.0,,63.9,-964,680,100,1007.09,65,569.3
"2017-05-15 18:00:21+00",23.1,28.1,,64.2,-685,757,96,1007.15,65.3,559.3
"2017-05-15 18:05:21+00",25.1,27.1,,64.1,-949,631,69,1007.02,65.2,555
"2017-05-15 18:10:21+00",24.9,30.9,,64.5,-645,904,78,1006.98,65.5,551.4
"2017-05-15 18:15:21+00",21.2,24.2,,64.7,-819,486,84,1007.01,66,431.7
"2017-05-15 18:20:21+00",30.4,37.4,,64.5,-1068,856,75,1006.98,65.6,543.4
"2017-05-15 18:25:21+00",23.0,29.0,,64.6,-742,729,54,1007.03,65.6,537.4
"2017-05-15 18:30:21+00",26.1,30.1,,64.9,-855,802,80,1007.07,65.9,539.6
"2017-05-15 18:35:21+00",24.3,30.3,,66,-576,925,74,1007.13,67,496.6
"2017-05-15 18:40:21+00",21.8,24.8,,65.3,-791,585,76,1007.21,66.8,444.7
"2017-05-15 18:45:21+00",25.0,30.0,,65.8,-498,1011,75,1007.19,66.9,552.7
"2017-05-15 18:50:21+00",32.3,37.3,,65.8,-894,1134,82,1007.04,67.1,462.9
"2017-05-15 18:55:21+00",20.4,22.4,,65.9,-685,610,57,1007.18,67.1,545.3
"2017-05-15 19:00:21+00",21.2,23.2,,65.4,-823,496,64,1007.13,66.4,125
"2017-05-15 19:05:21+00",25.4,32.4,,65.5,-897,700,76,1007,66.6,569.4
"2017-05-15 19:10:21+00",21.7,25.7,,65.8,-676,687,107,1007.16,66.8,228
"2017-05-15 19:15:21+00",20.8,29.8,,65.7,-622,698,76,1007.3,66.9,325.5
"2017-05-15 19:20:21+00",28.0,32.0,,66.2,-936,817,86,1007.18,67.3,499.5
"2017-05-15 19:25:21+00",22.2,27.2,,66.3,-520,845,50,1007.22,67.2,485.5
"2017-05-15 19:30:21+00",25.1,29.1,,66.5,-792,807,84,1007.25,67.6,72.2
"2017-05-15 19:35:21+00",27.7,31.7,,66.6,-796,950,86,1007.12,67,195.2
"2017-05-15 19:40:21+00",21.9,25.9,,66.4,-712,685,57,1007.22,67.5,522.8
"2017-05-15 19:45:21+00",23.6,25.6,,66.3,-830,657,70,1007.1,67.1,233.8
"2017-05-15 19:50:21+00",23.0,27.0,,66.4,-730,745,90,1007.07,66.8,137.7
"2017-05-15 19:55:21+00",23.6,26.6,,66.3,-795,724,84,1007.05,67,200.5
"2017-05-15 20:00:21+00",27.5,32.5,,66.6,-895,862,89,1007.11,67.5,338.2
"2017-05-15 20:05:21+00",20.9,26.9,,66.5,-776,550,96,1007.13,67.2,353.7
"2017-05-15 20:10:21+00",22.0,25.0,,67.1,-652,758,61,1007.16,67.5,65.8
"2017-05-15 20:15:21+00",19.7,23.7,,67.3,-561,681,85,1007.12,67.6,46.4
"2017-05-15 20:20:21+00",26.4,31.4,,67.2,-579,1033,66,1007.14,67.4,261.5
"2017-05-15 20:25:21+00",22.4,28.4,,67.5,-528,838,52,1007.23,68.3,106.5
"2017-05-15 20:30:21+00",18.5,22.5,,67.8,-551,612,65,1007.12,68.7,342.9
"2017-05-15 20:35:21+00",24.5,27.5,,67.6,-728,829,76,1007.01,68.6,43.6
"2017-05-15 20:40:21+00",26.2,31.2,,67.6,-732,905,77,1006.98,68.1,110.6
"2017-05-15 20:45:21+00",27.6,31.6,,67.8,-931,814,81,1006.99,68.6,349.9
"2017-05-15 20:50:21+00",25.7,28.7,,67.7,-790,843,66,1007.1,68.5,144.7
"2017-05-15 20:55:21+00",26.1,28.1,,67.9,-695,929,61,1007.06,68.6,297.2
"2017-05-15 21:00:21+00",22.7,26.7,,68.5,-580,837,81,1007.16,69.5,316.9
"2017-05-15 21:05:21+00",24.0,27.0,,68.6,-565,908,65,1007.15,69.9,192
"2017-05-15 21:10:21+00",22.5,24.5,,68.5,-595,804,52,1007.37,69.7,290.4
"2017-05-15 21:15:21+00",25.4,27.4,,68.4,-739,852,72,1007.28,69.5,270.8
"2017-05-15 21:20:21+00",21.2,27.2,,68.6,-555,745,82,1007.47,69.6,174.9
"2017-05-15 21:25:21+00",22.1,25.1,,68.6,-638,763,62,1007.56,69.2,23.1
"2017-05-15 21:30:21+00",22.0,26.0,,68.8,-463,871,52,1007.65,69,250.1
"2017-05-15 21:35:21+00",20.0,23.0,,69.3,-393,799,66,1007.6,70.1,244.8
"2017-05-15 21:40:21+00",23.7,28.7,,69.4,-625,842,42,1007.61,70.6,219.5
"2017-05-15 21:45:21+00",20.1,25.1,,68.6,-393,755,35,1007.54,69.5,78.9
"2017-05-15 21:50:21+00",26.4,30.4,,69,-627,990,66,1007.78,69.3,168.8
"2017-05-15 21:55:21+00",24.9,28.9,,69.4,-512,971,76,1007.91,69.8,198.5
"2017-05-15 22:00:21+00",25.7,32.7,,69.3,-587,979,73,1007.96,70,12.7
"2017-05-15 22:05:21+00",21.1,24.1,,69.3,-389,849,66,1007.94,70,102.2
"2017-05-15 22:10:21+00",21.5,24.5,,69.2,-526,809,82,1007.97,69.7,134.9
"2017-05-15 22:15:21+00",28.1,34.1,,69.5,-663,1060,61,1007.88,69.8,131.9
"2017-05-15 22:20:21+00",26.6,31.6,,69.1,-729,930,77,1007.98,69.5,118.7
"2017-05-15 22:25:21+00",27.4,30.4,,68.6,-753,974,75,1008.05,68.5,128.8
"2017-05-15 22:30:21+00",23.8,27.8,,69.1,-666,838,99,1008.14,68.9,106.6
"2017-05-15 22:35:21+00",26.9,30.9,,69.3,-628,1017,71,1008.29,69.1,105.3
"2017-05-15 22:40:21+00",25.8,30.8,,69.3,-614,988,75,1008.49,69.3,96.7
"2017-05-15 22:45:21+00",25.1,29.1,,69.3,-490,1005,66,1008.38,69.3,83.9
"2017-05-15 22:50:21+00",24.4,30.4,,69.1,-694,841,64,1008.55,69.2,75.4
"2017-05-15 22:55:21+00",23.6,30.6,,69.3,-537,911,70,1008.71,69.1,65.5
"2017-05-15 23:00:21+00",19.8,25.8,,69.3,-454,762,69,1008.83,69.1,56.8
"2017-05-15 23:05:21+00",18.3,21.3,,69.1,-453,681,30,1008.89,69.1,45.6
"2017-05-15 23:10:21+00",16.2,19.2,,68.8,-432,597,54,1008.93,68.7,35.3
"2017-05-15 23:15:21+00",26.2,30.2,,69.1,-501,1047,35,1009,68.5,27.1
"2017-05-15 23:20:21+00",19.1,23.1,,68.9,-315,784,51,1009.14,68.5,18.4
"2017-05-15 23:25:21+00",22.9,27.9,,68.8,-407,926,74,1009.25,68.2,10.9
"2017-05-15 23:30:21+00",18.9,20.9,,68.4,-468,713,47,1009.36,67.9,2.2
"2017-05-15 23:35:21+00",18.5,22.5,,68.2,-435,706,65,1009.42,67.5,0.4
"2017-05-15 23:40:21+00",16.4,22.4,,68,-365,641,45,1009.6,67.3,0
"2017-05-15 23:45:21+00",18.5,22.5,,68.1,-392,725,45,1009.63,67.2,0
"2017-05-15 23:50:21+00",16.1,18.1,,67.6,-294,653,35,1009.74,66.8,0
"2017-05-15 23:55:21+00",15.4,18.4,,67.4,-305,610,42,1009.97,66.4,0
